| time (UTC) | temp F | wind direction | speed MPH | gust MPH | rain 1hr in | rain 24hr in | rain mn in | humidity % | barometer mb |
| 20260509050442 | 46 | 189 | 0.0 | 0.0 | 0.00 | 0.00 | 0.00 | 59 | 787.5 |
| 20260508210433 | 52 | 86 | 0.0 | 0.0 | 0.00 | 0.00 | 0.00 | 47 | 787.0 |
| 20260508204630 | 51 | 265 | 0.0 | 0.0 | 0.00 | 0.00 | 0.00 | 48 | 787.0 |
| 20260508204519 | 51 | 265 | 0.0 | 0.0 | 0.00 | 0.00 | 0.00 | 47 | 787.0 |
| 20260508203419 | 51 | 274 | 0.0 | 0.0 | 0.00 | 0.00 | 0.00 | 46 | 787.0 |
| 20260508193418 | 54 | 131 | 0.0 | 0.0 | 0.00 | 0.00 | 0.00 | 43 | 787.1 |
| 20260508192548 | 53 | 203 | 0.0 | 0.0 | 0.00 | 0.00 | 0.00 | 46 | 787.1 |
| 20260508192452 | 53 | 203 | 0.0 | 0.0 | 0.00 | 0.00 | 0.00 | 46 | 787.1 |
| 20260508190439 | 51 | 192 | 0.0 | 0.0 | 0.00 | 0.00 | 0.00 | 52 | 787.1 |
| 20260508182224 | 52 | 192 | 0.0 | 0.0 | 0.00 | 0.00 | 0.00 | 45 | 787.1 |
| 20260508181807 | 52 | 96 | 0.0 | 0.0 | 0.00 | 0.00 | 0.00 | 44 | 787.1 |
| 20260508170248 | 50 | 262 | 0.0 | 0.0 | 0.00 | 0.00 | 0.00 | 45 | 787.1 |
| 20260508165912 | 50 | 261 | 0.0 | 0.0 | 0.00 | 0.00 | 0.00 | 48 | 787.1 |
| 20260508165708 | 50 | 254 | 0.0 | 0.0 | 0.00 | 0.00 | 0.00 | 48 | 787.1 |
| 20260508165557 | 50 | 261 | 0.0 | 0.0 | 0.00 | 0.00 | 0.00 | 48 | 787.1 |
| 20260508165446 | 50 | 263 | 0.0 | 0.0 | 0.00 | 0.00 | 0.00 | 47 | 787.1 |
| 20260508163432 | 50 | 96 | 0.0 | 0.0 | 0.00 | 0.00 | 0.00 | 48 | 787.1 |
| 20260508160428 | 50 | 281 | 0.0 | 0.0 | 0.00 | 0.00 | 0.00 | 48 | 787.2 |
| 20260508153440 | 49 | 290 | 0.0 | 0.0 | 0.00 | 0.00 | 0.00 | 49 | 787.2 |
| 20260508123347 | 44 | 275 | 0.0 | 0.0 | 0.00 | 0.00 | 0.00 | 72 | 787.2 |
| 20260508120340 | 43 | 275 | 0.0 | 0.0 | 0.00 | 0.00 | 0.00 | 77 | 787.2 |
| 20260508113341 | 42 | 275 | 0.0 | 0.0 | 0.00 | 0.00 | 0.00 | 78 | 787.1 |
| 20260508110330 | 41 | 275 | 0.0 | 0.0 | 0.00 | 0.00 | 0.00 | 82 | 787.1 |
| 20260508103334 | 41 | 275 | 0.0 | 0.0 | 0.00 | 0.00 | 0.00 | 86 | 787.0 |